CW8593 Weather Reports


Display with metric or nautical units.
time (UTC)temp
F
wind
direction
speed
MPH
gust
MPH
rain 1hr
in
rain 24hr
in
rain mn
in
humidity
%
barometer
mb
20180223015853 42 279 0.0 5.0 0.00 0.02 0.02 87 1005.7
20180223014953 42 279 1.0 1.0 0.00 0.02 0.02 88 1005.6
20180223014053 41 279 2.0 3.0 0.00 0.02 0.02 89 1005.7
20180223013153 41 278 1.0 3.0 0.00 0.02 0.02 88 1005.7
20180223012252 42 279 2.0 4.0 0.00 0.02 0.02 89 1005.7
20180223011353 42 279 1.0 3.0 0.00 0.02 0.02 88 1005.8
20180223010453 42 279 2.0 3.0 0.02 0.02 0.02 88 1005.9
20180223005552 42 279 1.0 3.0 0.02 0.02 0.02 86 1006.1
20180223004653 43 279 0.0 2.0 0.02 0.02 0.02 87 1006.1
20180223003752 42 279 2.0 4.0 0.02 0.02 0.02 85 1006.1
20180223002852 42 278 3.0 5.0 0.02 0.02 0.02 85 1006.2
20180223001952 42 279 3.0 7.0 0.02 0.02 0.02 86 1006.2
20180223001052 43 277 3.0 6.0 0.02 0.02 0.02 83 1006.2
20180223000152 44 275 4.0 6.0 0.01 0.01 0.01 78 1006.1
20180222235252 44 259 4.0 7.0 0.00 0.00 0.00 76 1006.2
20180222234353 44 109 3.0 6.0 0.00 0.00 0.00 76 1006.3
20180222233452 44 95 1.0 5.0 0.00 0.00 0.00 74 1006.2
20180222232552 45 95 1.0 3.0 0.00 0.00 0.00 73 1006.3
20180222231653 45 95 1.0 3.0 0.00 0.00 0.00 73 1006.4
20180222230752 46 95 3.0 6.0 0.00 0.00 0.00 68 1006.4
20180222225852 46 87 2.0 8.0 0.00 0.00 0.00 69 1006.4
20180222224952 46 72 1.0 4.0 0.00 0.00 0.00 69 1006.4
20180222224052 46 87 3.0 6.0 0.00 0.00 0.00 70 1006.5
20180222223152 46 100 2.0 7.0 0.00 0.00 0.00 69 1006.4
20180222222252 46 101 2.0 5.0 0.00 0.00 0.00 70 1006.4
20180222221352 46 101 2.0 5.0 0.00 0.00 0.00 71 1006.4
20180222220452 46 96 2.0 5.0 0.00 0.00 0.00 71 1006.4
20180222215552 46 88 2.0 6.0 0.00 0.00 0.00 71 1006.5
20180222214652 46 81 2.0 5.0 0.00 0.00 0.00 72 1006.4
20180222213752 46 86 4.0 7.0 0.00 0.00 0.00 70 1006.5
20180222212852 46 74 5.0 8.0 0.00 0.00 0.00 70 1006.5
20180222211952 46 103 4.0 10.0 0.00 0.00 0.00 70 1006.4
20180222211052 47 111 3.0 7.0 0.00 0.00 0.00 68 1006.3
20180222210152 47 113 3.0 9.0 0.00 0.00 0.00 67 1006.3
20180222205252 47 116 3.0 7.0 0.00 0.00 0.00 67 1006.2
20180222204352 47 110 5.0 8.0 0.00 0.00 0.00 67 1006.1
20180222203452 47 93 6.0 11.0 0.00 0.00 0.00 67 1006.2
20180222202552 47 108 7.0 13.0 0.00 0.00 0.00 67 1006.0
20180222201652 47 112 4.0 15.0 0.00 0.00 0.00 67 1005.8
20180222200752 47 143 3.0 6.0 0.00 0.00 0.00 67 1005.8
20180222195852 48 134 3.0 10.0 0.00 0.00 0.00 67 1005.8
20180222194952 47 143 2.0 9.0 0.00 0.00 0.00 68 1005.7
20180222194052 47 169 1.0 6.0 0.00 0.00 0.00 71 1005.6
20180222193152 47 187 2.0 4.0 0.00 0.00 0.00 72 1005.7
20180222192252 47 203 1.0 6.0 0.00 0.00 0.00 72 1005.6
20180222191352 47 213 2.0 5.0 0.00 0.00 0.00 74 1005.6
20180222190452 47 202 1.0 6.0 0.00 0.00 0.00 74 1005.6
20180222185552 47 198 2.0 4.0 0.00 0.00 0.00 75 1005.6
20180222184652 47 192 2.0 6.0 0.00 0.00 0.00 75 1005.6
20180222183752 47 188 3.0 7.0 0.00 0.00 0.00 75 1005.7
20180222182855 47 193 2.0 8.0 0.00 0.00 0.00 75 1005.6
20180222181952 47 188 2.0 6.0 0.00 0.00 0.00 74 1005.6
20180222181052 47 194 3.0 7.0 0.00 0.00 0.00 74 1005.5
20180222180152 47 185 3.0 7.0 0.00 0.00 0.00 74 1005.4
20180222175252 47 204 4.0 7.0 0.00 0.00 0.00 73 1005.2
20180222174352 47 184 4.0 10.0 0.00 0.00 0.00 72 1005.0
20180222173452 48 154 5.0 9.0 0.00 0.00 0.00 67 1005.0
20180222172552 48 145 5.0 11.0 0.00 0.00 0.00 64 1004.9
20180222171652 48 143 5.0 11.0 0.00 0.00 0.00 64 1004.9
20180222170752 48 137 4.0 9.0 0.00 0.00 0.00 64 1004.8
20180222165852 48 149 5.0 12.0 0.00 0.00 0.00 64 1004.7
20180222164952 48 134 5.0 11.0 0.00 0.00 0.00 64 1004.7
20180222164052 49 137 4.0 10.0 0.00 0.00 0.00 63 1004.6
20180222163152 49 137 4.0 11.0 0.00 0.00 0.00 63 1004.6
20180222162252 49 144 5.0 11.0 0.00 0.00 0.00 63 1004.5
20180222161352 49 136 6.0 13.0 0.00 0.00 0.00 63 1004.5
20180222160452 48 142 5.0 12.0 0.00 0.00 0.00 63 1004.5
20180222155552 49 154 5.0 10.0 0.00 0.00 0.00 63 1004.5
20180222154652 49 146 5.0 11.0 0.00 0.00 0.00 63 1004.4
20180222153752 49 153 5.0 9.0 0.00 0.00 0.00 62 1004.4
20180222152852 49 129 5.0 11.0 0.00 0.00 0.00 62 1004.3
20180222151952 49 121 4.0 12.0 0.00 0.00 0.00 62 1004.4
20180222151052 49 147 4.0 8.0 0.00 0.00 0.00 62 1004.4
20180222150152 49 161 5.0 14.0 0.00 0.00 0.00 63 1004.4
20180222145252 49 174 4.0 9.0 0.00 0.00 0.00 63 1004.5
20180222144352 49 141 4.0 10.0 0.00 0.00 0.00 62 1004.4
20180222143452 49 141 4.0 11.0 0.00 0.00 0.00 61 1004.5
20180222142551 49 124 4.0 10.0 0.00 0.00 0.00 62 1004.5
20180222141653 49 178 4.0 8.0 0.00 0.00 0.00 62 1004.5
20180222140752 48 163 4.0 11.0 0.00 0.00 0.00 62 1004.6
20180222135852 49 186 4.0 8.0 0.00 0.00 0.00 62 1004.7
20180222134951 48 173 5.0 12.0 0.00 0.00 0.00 63 1004.8
20180222134051 48 120 6.0 10.0 0.00 0.00 0.00 62 1004.8
20180222133151 48 130 6.0 13.0 0.00 0.00 0.00 63 1004.8
20180222132251 48 121 6.0 14.0 0.00 0.00 0.00 63 1004.7
20180222131351 48 144 5.0 14.0 0.00 0.00 0.00 63 1004.8
20180222130451 48 146 6.0 13.0 0.00 0.00 0.00 62 1004.9
20180222125551 48 169 5.0 13.0 0.00 0.00 0.00 62 1005.0
20180222124651 48 144 7.0 15.0 0.00 0.00 0.00 62 1004.9
20180222123751 47 146 4.0 15.0 0.00 0.00 0.00 63 1005.0
20180222122851 48 131 5.0 11.0 0.00 0.00 0.00 63 1005.0
20180222121951 47 142 5.0 12.0 0.00 0.00 0.00 62 1005.0
20180222121051 48 135 6.0 10.0 0.00 0.00 0.00 62 1005.1
20180222120151 48 153 5.0 9.0 0.00 0.00 0.00 61 1005.2
20180222115251 48 141 5.0 11.0 0.00 0.00 0.00 61 1005.2
20180222114351 48 109 5.0 11.0 0.00 0.00 0.00 57 1005.3
20180222113451 48 100 3.0 9.0 0.00 0.00 0.00 53 1005.4
20180222112551 48 122 4.0 9.0 0.00 0.00 0.00 54 1005.5
20180222111651 48 90 5.0 11.0 0.00 0.00 0.00 55 1005.5
20180222110751 46 96 4.0 11.0 0.00 0.00 0.00 55 1005.6
20180222105851 47 93 4.0 10.0 0.00 0.00 0.00 55 1005.6
20180222104951 47 105 4.0 11.0 0.00 0.00 0.00 56 1005.6
20180222104051 48 103 4.0 11.0 0.00 0.00 0.00 56 1005.6
20180222103151 48 108 2.0 10.0 0.00 0.00 0.00 54 1005.6
20180222102251 49 113 2.0 9.0 0.00 0.00 0.00 53 1005.6
20180222101351 49 95 2.0 7.0 0.00 0.00 0.00 52 1005.6
20180222100452 48 61 2.0 6.0 0.00 0.00 0.00 52 1005.5
20180222095551 47 4 3.0 4.0 0.00 0.00 0.00 52 1005.5
20180222094651 47 6 4.0 7.0 0.00 0.00 0.00 53 1005.5
20180222093751 46 7 4.0 8.0 0.00 0.00 0.00 53 1005.4
20180222092851 45 351 5.0 9.0 0.00 0.00 0.00 53 1005.4
20180222091951 45 353 4.0 8.0 0.00 0.00 0.00 53 1005.4
20180222091051 45 345 5.0 9.0 0.00 0.00 0.00 53 1005.4
20180222090151 45 351 5.0 8.0 0.00 0.00 0.00 52 1005.4
20180222085251 45 4 5.0 9.0 0.00 0.00 0.00 52 1005.3
20180222084351 44 356 6.0 11.0 0.00 0.00 0.00 52 1005.3
20180222083451 44 341 6.0 12.0 0.00 0.00 0.00 53 1005.3
20180222082551 43 335 6.0 12.0 0.00 0.00 0.00 53 1005.3
20180222081651 43 339 6.0 12.0 0.00 0.00 0.00 54 1005.3
20180222080751 42 314 7.0 14.0 0.00 0.00 0.00 54 1005.4
20180222075851 42 311 5.0 13.0 0.00 0.00 0.00 55 1005.3
20180222074951 42 325 5.0 12.0 0.00 0.00 0.00 55 1005.3
20180222074051 42 320 6.0 14.0 0.00 0.00 0.00 55 1005.3
20180222073151 41 318 6.0 14.0 0.00 0.00 0.00 56 1005.3
20180222072251 40 317 6.0 12.0 0.00 0.00 0.00 57 1005.2
20180222071351 40 314 7.0 11.0 0.00 0.00 0.00 58 1005.1
20180222070452 40 311 8.0 14.0 0.00 0.00 0.00 59 1005.0
20180222065551 40 312 7.0 13.0 0.00 0.00 0.00 59 1004.8
20180222064651 40 322 7.0 12.0 0.00 0.00 0.00 60 1004.8
20180222063751 40 316 7.0 11.0 0.00 0.00 0.00 60 1004.8
20180222062851 40 318 7.0 12.0 0.00 0.00 0.00 61 1004.8
20180222061951 40 316 7.0 12.0 0.00 0.00 0.00 62 1004.8
20180222061051 40 312 8.0 12.0 0.00 0.00 0.00 63 1004.9
20180222060151 40 309 9.0 13.0 0.00 0.00 0.00 65 1004.8
20180222055251 40 310 6.0 13.0 0.00 0.00 0.00 66 1004.8
20180222054351 40 335 5.0 9.0 0.00 0.00 0.00 69 1004.9
20180222053451 40 320 6.0 12.0 0.00 0.00 0.00 69 1004.8
20180222052551 40 325 5.0 12.0 0.00 0.00 0.00 68 1004.8
20180222051651 40 327 3.0 10.0 0.00 0.00 0.00 69 1004.8
20180222050751 40 333 2.0 6.0 0.00 0.00 0.00 72 1004.8
20180222045851 41 318 2.0 7.0 0.00 0.00 0.00 72 1004.9
20180222044951 41 327 0.0 3.0 0.00 0.00 0.00 73 1004.7
20180222044051 41 327 1.0 3.0 0.00 0.00 0.00 73 1004.9
20180222043151 41 316 2.0 5.0 0.00 0.00 0.00 72 1004.9
20180222042250 41 309 4.0 9.0 0.00 0.00 0.00 72 1005.0
20180222041350 42 314 2.0 9.0 0.00 0.00 0.00 71 1005.1
20180222040451 41 314 2.0 3.0 0.00 0.00 0.00 73 1005.2
20180222035550 41 311 3.0 6.0 0.00 0.00 0.00 73 1005.2
20180222034651 41 325 3.0 7.0 0.00 0.00 0.00 73 1005.3
20180222033750 41 324 1.0 5.0 0.00 0.00 0.00 74 1005.5
20180222032850 40 323 0.0 4.0 0.00 0.00 0.00 77 1005.6
20180222031951 40 0 0.0 0.0 0.00 0.00 0.00 76 1005.6
20180222031050 40 0 0.0 0.0 0.00 0.00 0.00 76 1005.6
20180222030150 40 323 1.0 3.0 0.00 0.00 0.00 75 1005.7
20180222025251 41 323 2.0 3.0 0.00 0.00 0.00 73 1005.8
20180222024350 42 323 2.0 3.0 0.00 0.00 0.00 71 1005.9
20180222023451 41 323 0.0 3.0 0.00 0.00 0.00 73 1006.0
20180222022550 41 323 0.0 2.0 0.00 0.00 0.00 72 1006.0
20180222021650 42 323 1.0 1.0 0.00 0.00 0.00 71 1006.0
20180222020750 41 323 1.0 3.0 0.00 0.00 0.00 71 1006.1